This is the latest recevied weather packets stored in our database for station/object KC3WWU. If no packets are shown the sender has not sent any weather packets the latest 10 day(s).
| Time | Temp. | Humidity | Pressure | Rain* | Wind** | Luminosity | Snow |
|---|---|---|---|---|---|---|---|
| 1777811811 | 2.78° C | 83% | 1013.8 hPa | 0 mm | - | 108 W/m² | - |
| 1777811509 | 2.78° C | 84% | 1014 hPa | 0 mm | - | 134 W/m² | - |
| 1777811204 | 2.22° C | 85% | 1013.9 hPa | 0 mm | - | 82 W/m² | - |
| 1777810902 | 2.22° C | 84% | 1013.9 hPa | 0 mm | - | 63 W/m² | - |
| 1777810598 | 1.67° C | 85% | 1013.6 hPa | 0 mm | - | 94 W/m² | - |
| 1777810296 | 1.67° C | 86% | 1013.5 hPa | 0 mm | - | 100 W/m² | - |
| 1777809991 | 1.67° C | 87% | 1013.8 hPa | 0 mm | - | 47 W/m² | - |
| 1777809689 | 1.11° C | 86% | 1013.5 hPa | 0 mm | - | 37 W/m² | - |
| 1777809386 | 1.11° C | 87% | 1013.4 hPa | 0 mm | - | 30 W/m² | - |
| 1777809084 | 0.56° C | 88% | 1013.4 hPa | 0 mm | - | 28 W/m² | - |
| 1777808782 | 0.56° C | 88% | 1013.4 hPa | 0 mm | - | 27 W/m² | - |
| 1777808478 | 0.56° C | 89% | 1013.6 hPa | 0 mm | - | 31 W/m² | - |
| 1777808176 | 0° C | 89% | 1013.5 hPa | 0 mm | - | 25 W/m² | - |
| 1777807874 | 0° C | 90% | 1013.4 hPa | 0 mm | - | 25 W/m² | - |
| 1777807572 | 0° C | 90% | 1013.2 hPa | 0 mm | - | 24 W/m² | - |
| 1777807268 | 0° C | 91% | 1013.3 hPa | 0 mm | - | 23 W/m² | - |
| 1777806965 | -0.56° C | 92% | 1013.4 hPa | 0 mm | - | 22 W/m² | - |
| 1777806661 | -0.56° C | 92% | 1013.1 hPa | 0 mm | - | 21 W/m² | - |
| 1777806357 | -1.11° C | 93% | 1013.1 hPa | 0 mm | - | 19 W/m² | - |
| 1777806054 | -1.11° C | 94% | 1013.1 hPa | 0 mm | - | 18 W/m² | - |
| 1777805750 | -1.11° C | 94% | 1013.1 hPa | 0 mm | - | 17 W/m² | - |
| 1777805448 | -1.11° C | 95% | 1012.7 hPa | 0 mm | - | 15 W/m² | - |
| 1777805146 | -1.67° C | 95% | 1012.9 hPa | 0 mm | - | 14 W/m² | - |
| 1777804843 | -1.67° C | 95% | 1012.8 hPa | 0 mm | - | 12 W/m² | - |
| 1777804541 | -1.67° C | 95% | 1012.7 hPa | 0 mm | - | 10 W/m² | - |
* Rain latest hour (hover to see other rain measurements)
** Current wind speed in m/s (hover to see current wind gust speed)